When you browse on this site, cookies collect data to enhance your experience and personalize the content and advertising you see.
Visit our Privacy Policy to learn more. By continuing to use the site, you agree to this use of cookies and data.
  • en Suisse
  • Liste des pays
  • À 7 jours
  • Température de l'eau
  • Carte satellitaire
  • Carte météo
  • Widgets météo
  • user-avatar
    Se connecter

    Météo par heure à Nurtingen

    Ce jour, 23 Mai, Jeudi

    Heure Température Précipitation Vent Pression Humidité
    00:00 +8°C° 0 mm 0 m/s 740 mmHg 89%
    01:00 +9°C° 0 mm 1 m/s 740 mmHg 88%
    02:00 +9°C° 0 mm 1 m/s 740 mmHg 88%
    03:00 +9°C° 0 mm 1 m/s 740 mmHg 89%
    04:00 +8°C° 0 mm 1 m/s 740 mmHg 89%
    05:00 +10°C° 0 mm 1 m/s 740 mmHg 85%
    06:00 +11°C° 0 mm 1 m/s 740 mmHg 81%
    07:00 +12°C° 0 mm 1 m/s 740 mmHg 75%
    08:00 +14°C° 0 mm 1 m/s 740 mmHg 68%
    09:00 +16°C° 0 mm 1 m/s 740 mmHg 62%
    10:00 +17°C° 0 mm 2 m/s 740 mmHg 55%
    11:00 +18°C° 0 mm 2 m/s 739 mmHg 53%
    12:00 +19°C° 0 mm 2 m/s 739 mmHg 50%
    13:00 +21°C° 0 mm 1 m/s 739 mmHg 48%
    14:00 +22°C° 0 mm 1 m/s 739 mmHg 48%
    15:00 +22°C° 0 mm 1 m/s 739 mmHg 49%
    16:00 +22°C° 0 mm 1 m/s 738 mmHg 49%
    17:00 +21°C° 0 mm 1 m/s 738 mmHg 56%
    18:00 +20°C° 0 mm 1 m/s 738 mmHg 63%
    19:00 +18°C° 0 mm 1 m/s 737 mmHg 70%
    20:00 +16°C° 0 mm 1 m/s 738 mmHg 75%
    21:00 +14°C° 0 mm 1 m/s 738 mmHg 79%
    22:00 +13°C° 0 mm 1 m/s 738 mmHg 84%
    23:00 +12°C° 0 mm 1 m/s 738 mmHg 85%

    Demain, 24 Mai, Vendredi

    Heure Température Précipitation Vent Pression Humidité
    00:00 +12°C° 0 mm 1 m/s 738 mmHg 86%
    01:00 +11°C° 0 mm 1 m/s 738 mmHg 87%
    02:00 +11°C° 0 mm 1 m/s 737 mmHg 88%
    03:00 +10°C° 0 mm 1 m/s 737 mmHg 88%
    04:00 +10°C° 0 mm 1 m/s 737 mmHg 89%
    05:00 +11°C° 0 mm 1 m/s 737 mmHg 84%
    06:00 +13°C° 0 mm 1 m/s 737 mmHg 80%
    07:00 +14°C° 0 mm 1 m/s 737 mmHg 75%
    08:00 +16°C° 0 mm 1 m/s 737 mmHg 69%
    09:00 +19°C° 0 mm 1 m/s 737 mmHg 63%
    10:00 +21°C° 0 mm 1 m/s 737 mmHg 57%
    11:00 +22°C° 0 mm 1 m/s 736 mmHg 54%
    12:00 +23°C° 0 mm 1 m/s 736 mmHg 51%
    13:00 +24°C° 0 mm 1 m/s 736 mmHg 48%
    14:00 +24°C° 0 mm 1 m/s 736 mmHg 48%
    15:00 +24°C° 0 mm 1 m/s 735 mmHg 48%
    16:00 +24°C° 0 mm 1 m/s 735 mmHg 48%
    17:00 +23°C° 0 mm 1 m/s 735 mmHg 54%
    18:00 +22°C° 0 mm 1 m/s 735 mmHg 60%
    19:00 +20°C° 0 mm 1 m/s 735 mmHg 66%
    20:00 +17°C° 0 mm 0 m/s 735 mmHg 71%
    21:00 +15°C° 0 mm 0 m/s 735 mmHg 75%
    22:00 +13°C° 0 mm 0 m/s 735 mmHg 79%
    23:00 +13°C° 0 mm 0 m/s 735 mmHg 81%

    Après-demain, 25 Mai, Samedi

    Heure Température Précipitation Vent Pression Humidité
    00:00 +13°C° 0 mm 0 m/s 735 mmHg 82%
    01:00 +12°C° 0 mm 0 m/s 735 mmHg 83%
    02:00 +12°C° 0 mm 0 m/s 735 mmHg 84%
    03:00 +11°C° 0 mm 0 m/s 735 mmHg 85%
    04:00 +11°C° 0 mm 0 m/s 735 mmHg 86%
    05:00 +12°C° 0 mm 0 m/s 735 mmHg 83%
    06:00 +14°C° 0 mm 0 m/s 736 mmHg 80%
    07:00 +15°C° 0 mm 0 m/s 736 mmHg 77%
    08:00 +19°C° 0.1 mm 1 m/s 736 mmHg 73%
    09:00 +20°C° 0.1 mm 1 m/s 736 mmHg 70%
    10:00 +20°C° 0.1 mm 2 m/s 736 mmHg 67%
    11:00 +21°C° 0.2 mm 2 m/s 736 mmHg 67%
    12:00 +21°C° 0.2 mm 3 m/s 736 mmHg 67%
    13:00 +21°C° 0.2 mm 3 m/s 736 mmHg 67%
    14:00 +21°C° 0.4 mm 3 m/s 736 mmHg 70%
    15:00 +20°C° 0.4 mm 2 m/s 736 mmHg 73%
    16:00 +20°C° 0.4 mm 2 m/s 736 mmHg 76%
    17:00 +19°C° 0.1 mm 2 m/s 736 mmHg 78%
    18:00 +20°C° 0.1 mm 1 m/s 736 mmHg 79%
    19:00 +19°C° 0.1 mm 1 m/s 736 mmHg 81%
    20:00 +18°C° 0 mm 1 m/s 736 mmHg 84%
    21:00 +15°C° 0 mm 1 m/s 737 mmHg 86%
    22:00 +13°C° 0 mm 0 m/s 737 mmHg 88%
    23:00 +12°C° 0 mm 0 m/s 737 mmHg 89%

    26 Mai, Dimanche

    Heure Température Précipitation Vent Pression Humidité
    00:00 +12°C° 0 mm 0 m/s 737 mmHg 89%
    01:00 +11°C° 0 mm 0 m/s 737 mmHg 90%
    02:00 +11°C° 0 mm 0 m/s 737 mmHg 90%
    03:00 +10°C° 0 mm 0 m/s 737 mmHg 91%
    04:00 +10°C° 0 mm 0 m/s 736 mmHg 91%
    05:00 +11°C° 0 mm 0 m/s 737 mmHg 88%
    06:00 +13°C° 0 mm 0 m/s 737 mmHg 85%
    07:00 +14°C° 0 mm 0 m/s 737 mmHg 82%
    08:00 +16°C° 0 mm 0 m/s 737 mmHg 74%
    09:00 +19°C° 0 mm 1 m/s 737 mmHg 66%
    10:00 +21°C° 0 mm 1 m/s 737 mmHg 59%
    11:00 +22°C° 0 mm 1 m/s 737 mmHg 56%
    12:00 +21°C° 0 mm 2 m/s 736 mmHg 54%
    13:00 +23°C° 0 mm 2 m/s 736 mmHg 51%
    14:00 +23°C° 0 mm 2 m/s 736 mmHg 53%
    15:00 +22°C° 0 mm 3 m/s 735 mmHg 54%
    16:00 +22°C° 0 mm 3 m/s 735 mmHg 55%
    17:00 +21°C° 0 mm 2 m/s 735 mmHg 60%
    18:00 +20°C° 0 mm 2 m/s 735 mmHg 66%
    19:00 +20°C° 0 mm 1 m/s 735 mmHg 71%
    20:00 +18°C° 0 mm 1 m/s 735 mmHg 74%
    21:00 +16°C° 0 mm 1 m/s 735 mmHg 78%
    22:00 +13°C° 0 mm 0 m/s 735 mmHg 81%
    23:00 +14°C° 0 mm 1 m/s 735 mmHg 83%

    27 Mai, Lundi

    Heure Température Précipitation Vent Pression Humidité
    00:00 +13°C° 0 mm 1 m/s 734 mmHg 85%
    01:00 +13°C° 0 mm 1 m/s 734 mmHg 87%
    02:00 +13°C° 0 mm 1 m/s 734 mmHg 88%
    03:00 +12°C° 0 mm 1 m/s 733 mmHg 89%
    04:00 +12°C° 0 mm 1 m/s 733 mmHg 90%
    05:00 +13°C° 0 mm 1 m/s 733 mmHg 86%
    06:00 +15°C° 0 mm 1 m/s 733 mmHg 82%
    07:00 +16°C° 0 mm 1 m/s 733 mmHg 78%
    08:00 +19°C° 0 mm 1 m/s 733 mmHg 72%
    09:00 +20°C° 0 mm 1 m/s 732 mmHg 65%
    10:00 +22°C° 0 mm 1 m/s 732 mmHg 59%
    11:00 +23°C° 0 mm 2 m/s 731 mmHg 57%
    12:00 +23°C° 0 mm 2 m/s 731 mmHg 55%
    13:00 +24°C° 0 mm 2 m/s 730 mmHg 53%
    14:00 +24°C° 0.1 mm 2 m/s 730 mmHg 56%
    15:00 +23°C° 0.1 mm 2 m/s 729 mmHg 59%
    16:00 +22°C° 0.1 mm 3 m/s 729 mmHg 62%
    17:00 +21°C° 0.5 mm 3 m/s 729 mmHg 70%
    18:00 +19°C° 0.5 mm 3 m/s 729 mmHg 79%
    19:00 +17°C° 0.5 mm 3 m/s 729 mmHg 87%
    20:00 +16°C° 0 mm 3 m/s 729 mmHg 89%
    21:00 +15°C° 0 mm 2 m/s 729 mmHg 91%
    22:00 +14°C° 0 mm 2 m/s 729 mmHg 93%
    23:00 +14°C° 0.1 mm 2 m/s 729 mmHg 94%

    28 Mai, Mardi

    Heure Température Précipitation Vent Pression Humidité
    00:00 +14°C° 0.1 mm 2 m/s 729 mmHg 94%
    01:00 +14°C° 0.1 mm 2 m/s 729 mmHg 94%
    02:00 +13°C° 0 mm 1 m/s 729 mmHg 94%
    03:00 +13°C° 0 mm 1 m/s 729 mmHg 94%
    04:00 +13°C° 0 mm 1 m/s 729 mmHg 94%
    05:00 +13°C° 0.1 mm 1 m/s 729 mmHg 92%
    06:00 +14°C° 0.1 mm 1 m/s 729 mmHg 89%
    07:00 +14°C° 0.1 mm 1 m/s 729 mmHg 87%
    08:00 +15°C° 0.2 mm 1 m/s 729 mmHg 84%
    09:00 +15°C° 0.2 mm 1 m/s 729 mmHg 81%
    10:00 +16°C° 0.2 mm 1 m/s 730 mmHg 78%
    11:00 +16°C° 0.2 mm 1 m/s 730 mmHg 75%
    12:00 +18°C° 0.2 mm 1 m/s 730 mmHg 72%
    13:00 +18°C° 0.2 mm 2 m/s 730 mmHg 69%
    14:00 +17°C° 0.3 mm 2 m/s 730 mmHg 72%
    15:00 +17°C° 0.3 mm 2 m/s 731 mmHg 74%
    16:00 +17°C° 0.3 mm 2 m/s 731 mmHg 77%
    17:00 +16°C° 0.1 mm 2 m/s 731 mmHg 80%
    18:00 +16°C° 0.1 mm 1 m/s 731 mmHg 82%
    19:00 +16°C° 0.1 mm 1 m/s 731 mmHg 85%
    20:00 +15°C° 0.2 mm 1 m/s 732 mmHg 87%
    21:00 +13°C° 0.2 mm 0 m/s 732 mmHg 89%
    22:00 +12°C° 0.2 mm 0 m/s 732 mmHg 91%
    23:00 +13°C° 0.4 mm 1 m/s 733 mmHg 92%
    Voir plus